�N����,����,����,����,����,�C��,���x,�~����,���Ǝ���,�S�V����,�ő�u�ԕ���,,,
,,,,,,,,,,����,����,����,�N��
yyyy/mm/dd,hh:mm:ss,(16),16����,m/s,��,%,mm,min,KW/�u,(16),16����,m/s,Time
2012/8/1,1:00:00,68,���k��,2.4,20,96,0,0,0,90,��,3.6,18
2012/8/1,2:00:00,360,�k,1.5,20,96.5,0,0,0,68,���k��,3.4,0
2012/8/1,3:00:00,23,�k�k��,1.7,20.3,93.9,0,0,0,23,�k�k��,2.5,56
2012/8/1,4:00:00,23,�k�k��,1.2,20,95.1,0,0,0,23,�k�k��,2.3,0
2012/8/1,5:00:00,68,���k��,0.7,20.3,95.2,0,0,0.01,45,�k��,3.1,4
2012/8/1,6:00:00,68,���k��,1.3,20.8,95.2,0,0,0.06,338,�k�k��,2.6,27
2012/8/1,7:00:00,45,�k��,1.5,21.2,93.6,0,32,0.12,45,�k��,3,56
2012/8/1,8:00:00,45,�k��,1.9,21.5,93.2,0,32,0.13,45,�k��,3.8,28
2012/8/1,9:00:00,45,�k��,2.2,21.1,94.2,0,0,0.09,45,�k��,3.9,27
2012/8/1,10:00:00,338,�k�k��,0.5,21.8,93.4,0,10,0.1,23,�k�k��,3.3,19
2012/8/1,11:00:00,68,���k��,0.8,20.3,95.2,0,46,0.13,68,���k��,2.9,38
2012/8/1,12:00:00,203,��쐼,1.3,21.5,93.1,0,60,0.17,203,��쐼,2.3,56
2012/8/1,13:00:00,135,�쓌,1.3,19.5,94.4,0,60,0.17,158,��쓌,3.8,4
2012/8/1,14:00:00,158,��쓌,2.2,19.3,95.6,0,51,0.14,180,��,3.7,59
2012/8/1,15:00:00,158,��쓌,1.1,19.4,95,0,53,0.15,158,��쓌,3.7,4
2012/8/1,16:00:00,135,�쓌,0.9,20.1,95,0,50,0.16,203,��쐼,2,16
2012/8/1,17:00:00,180,��,1.7,20.3,95.6,0,14,0.09,180,��,2.6,56
2012/8/1,18:00:00,158,��쓌,1.5,20.4,96.1,0,0,0.05,158,��쓌,2.3,54
2012/8/1,19:00:00,90,��,0.9,20.1,98,0,0,0.01,180,��,1.8,2
2012/8/1,20:00:00,90,�É�,0,20.1,98.1,0,0,0,68,���k��,1.4,3
2012/8/1,21:00:00,315,�k��,0.7,20.4,98.9,0,0,0,360,�k,2.4,22
2012/8/1,22:00:00,90,��,1.1,20.4,98.9,0,0,0,315,�k��,2.6,5
2012/8/1,23:00:00,45,�k��,2.7,17.6,99.1,0,0,0,68,���k��,5.3,35
2012/8/1,0:00:00,68,���k��,3.1,17.5,99.2,0,0,0,68,���k��,5,48
2012/8/2,1:00:00,45,�k��,1.9,17,97.3,0,0,0,90,��,4.7,0
2012/8/2,2:00:00,45,�k��,0.9,17,97.1,0,0,0,68,���k��,3,26
2012/8/2,3:00:00,68,���k��,0.5,17.1,96.8,0,0,0,23,�k�k��,1.9,19
2012/8/2,4:00:00,293,�É�,0.2,16.7,98.7,0,0,0,68,���k��,2.1,5
2012/8/2,5:00:00,90,��,0.6,17.1,99.3,0,0,0.01,90,��,1,56
2012/8/2,6:00:00,45,�k��,1.1,17.2,99.5,0,0,0.03,68,���k��,2.4,55
2012/8/2,7:00:00,68,���k��,1.2,17.5,99.6,0,0,0.06,90,��,2.5,43
2012/8/2,8:00:00,90,��,3.1,16.7,99.5,0,0,0.06,90,��,4.4,49
2012/8/2,9:00:00,68,���k��,3,17,99.6,0,27,0.12,68,���k��,4.6,6
2012/8/2,10:00:00,90,��,2.5,17.4,99.3,0,60,0.25,90,��,4.2,19
2012/8/2,11:00:00,113,���쓌,1.9,17.4,97.2,0,60,0.31,90,��,3.5,9
2012/8/2,12:00:00,135,�쓌,2,17.8,95.1,0,60,0.41,113,���쓌,3.5,58
2012/8/2,13:00:00,135,�쓌,1.9,17,96.3,0,60,0.31,135,�쓌,3.3,59
2012/8/2,14:00:00,158,��쓌,2.2,16.6,94.9,0,60,0.32,158,��쓌,3.5,59
2012/8/2,15:00:00,180,��,1.8,17,94.8,0,60,0.23,158,��쓌,3.3,12
2012/8/2,16:00:00,158,��쓌,1.2,16.2,96.6,0,36,0.17,158,��쓌,3.4,6
2012/8/2,17:00:00,180,��,1.2,16.1,98.4,0,2,0.08,158,��쓌,2.6,26
2012/8/2,18:00:00,180,��,1.1,15.8,98.7,0,0,0.03,180,��,2.5,1
2012/8/2,19:00:00,158,��쓌,0.7,15.7,99.1,0,0,0.01,158,��쓌,2.3,34
2012/8/2,20:00:00,203,��쐼,0.7,15.4,99.2,0,0,0,180,��,1.8,26
2012/8/2,21:00:00,180,��,1.1,15.3,99.2,0,0,0,180,��,2.2,58
2012/8/2,22:00:00,180,��,0.5,15.1,98.9,0,0,0,135,�쓌,2.8,2
2012/8/2,23:00:00,135,�쓌,1.3,14.9,99.1,0,0,0,113,���쓌,2.6,56
2012/8/2,0:00:00,158,��쓌,1,14.8,99.2,0,0,0,158,��쓌,2.7,46
2012/8/3,1:00:00,203,��쐼,0.9,14.7,99.4,0,0,0,158,��쓌,1.9,45
2012/8/3,2:00:00,180,��,0.9,14.7,99.5,0,0,0,203,��쐼,2.5,28
2012/8/3,3:00:00,135,�쓌,1.1,14.4,99.5,0,0,0,135,�쓌,3,23
2012/8/3,4:00:00,158,��쓌,0.8,14.3,99.5,0,0,0,135,�쓌,2.6,38
2012/8/3,5:00:00,158,��쓌,0.3,14.6,99.4,0,0,0.01,158,��쓌,1.1,4
2012/8/3,6:00:00,113,���쓌,1.7,14.9,98.9,0,0,0.03,113,���쓌,2.4,59
2012/8/3,7:00:00,135,�쓌,1.5,14.9,97.5,0,0,0.08,113,���쓌,2.3,1
2012/8/3,8:00:00,158,��쓌,1.4,14.6,99.1,0,7,0.09,135,�쓌,2.5,19
2012/8/3,9:00:00,113,���쓌,1.4,15.9,97.5,0,58,0.19,180,��,2.7,9
2012/8/3,10:00:00,113,���쓌,2.5,16.4,92,0,60,0.41,113,���쓌,3.7,55
2012/8/3,11:00:00,113,���쓌,2.7,17.1,88.2,0,60,0.54,113,���쓌,4.5,58
2012/8/3,12:00:00,135,�쓌,2.2,17.6,87.1,0,60,0.74,113,���쓌,4.6,35
2012/8/3,13:00:00,135,�쓌,2.8,17.1,87.3,0,60,0.58,113,���쓌,4.5,27
2012/8/3,14:00:00,135,�쓌,2.5,17.6,88.4,0,60,0.57,113,���쓌,4.6,35
2012/8/3,15:00:00,135,�쓌,2.2,17.2,88.1,0,60,0.53,113,���쓌,4.4,20
2012/8/3,16:00:00,135,�쓌,1.8,16.3,86.3,0,60,0.38,113,���쓌,3.9,48
2012/8/3,17:00:00,158,��쓌,1.2,16.4,87.4,0,60,0.24,135,�쓌,3.5,24
2012/8/3,18:00:00,203,��쐼,0.8,15.4,89.9,0,3,0.05,135,�쓌,2.5,0
2012/8/3,19:00:00,113,���쓌,1.1,15.2,91,0,0,0.01,113,���쓌,2.5,33
2012/8/3,20:00:00,90,��,1.4,15.1,91.9,0,0,0,90,��,2.2,42
2012/8/3,21:00:00,90,��,0.6,15.1,92.4,0,0,0,90,��,2.2,16
2012/8/3,22:00:00,45,�k��,0.6,15,94.3,0,0,0,45,�k��,1.2,33
2012/8/3,23:00:00,135,�쓌,0.9,14.9,94.2,0,0,0,113,���쓌,1.7,33
2012/8/3,0:00:00,113,���쓌,0.7,14.9,95.2,0,0,0,113,���쓌,1.5,35
2012/8/4,1:00:00,45,�k��,0.8,15,95.8,0,0,0,68,���k��,1.4,47
2012/8/4,2:00:00,225,�쐼,0.3,14.8,96.9,0,0,0,23,�k�k��,1.4,0
2012/8/4,3:00:00,248,�É�,0.1,14.9,97.1,0,0,0,248,���쐼,1,27
2012/8/4,4:00:00,45,�k��,0.5,14.9,96.8,0,0,0,23,�k�k��,1.6,25
2012/8/4,5:00:00,113,�É�,0.1,15.1,96.5,0,0,0.01,23,�k�k��,1.6,13
2012/8/4,6:00:00,113,���쓌,0.9,15.5,93.6,0,0,0.04,113,���쓌,1.8,56
2012/8/4,7:00:00,113,���쓌,0.9,16,93.1,0,16,0.1,113,���쓌,1.8,34
2012/8/4,8:00:00,68,���k��,0.7,16.9,90,0,42,0.19,68,���k��,1.9,58
2012/8/4,9:00:00,90,��,1.9,17.6,85.1,0,60,0.35,90,��,3.3,59
2012/8/4,10:00:00,113,���쓌,2.3,18.5,86,0,60,0.54,113,���쓌,3.6,49
2012/8/4,11:00:00,113,���쓌,2.3,18.4,87.3,0,60,0.62,113,���쓌,4.4,24
2012/8/4,12:00:00,135,�쓌,2.9,18.5,86.4,0,60,0.64,113,���쓌,5.5,43
2012/8/4,13:00:00,113,���쓌,2.9,18.4,86.7,0,60,0.55,90,��,5.2,23
2012/8/4,14:00:00,113,���쓌,2.7,18.1,87.5,0,60,0.42,135,�쓌,5.1,7
2012/8/4,15:00:00,135,�쓌,2,17.1,86,0,60,0.35,113,���쓌,4.6,14
2012/8/4,16:00:00,135,�쓌,1.8,17.7,88.1,0,60,0.26,113,���쓌,3.9,26
2012/8/4,17:00:00,113,���쓌,2.3,17.2,91,0,60,0.19,90,��,3.6,59
2012/8/4,18:00:00,90,��,2.2,16.5,93.7,0,5,0.06,113,���쓌,3.1,13
2012/8/4,19:00:00,113,���쓌,1.4,16.2,95.8,0,0,0.01,90,��,2.8,1
2012/8/4,20:00:00,90,��,1.1,16.2,96.6,0,0,0,113,���쓌,1.8,22
2012/8/4,21:00:00,158,�É�,0.1,15.9,97.8,0,0,0,90,��,1.7,7
2012/8/4,22:00:00,113,�É�,0.2,15.8,98.7,0,0,0,113,���쓌,1.8,37
2012/8/4,23:00:00,113,���쓌,0.7,15.8,99,0,0,0,113,���쓌,1.6,39
2012/8/4,0:00:00,90,��,0.9,15.8,99.2,0,0,0,90,��,1.4,56
2012/8/5,1:00:00,90,��,1.4,15.8,99.3,0.5,0,0,68,���k��,2,53
2012/8/5,2:00:00,68,���k��,1.6,15.7,99.4,0,0,0,113,���쓌,2.5,27
2012/8/5,3:00:00,45,�k��,1.4,15.7,99.6,0.5,0,0,68,���k��,2.6,13
2012/8/5,4:00:00,23,�k�k��,1.9,15.6,99.6,0,0,0,23,�k�k��,3.1,34
2012/8/5,5:00:00,23,�k�k��,1.3,15.4,99.6,0.5,0,0.01,23,�k�k��,2.9,8
2012/8/5,6:00:00,360,�k,1.7,15.6,99.6,0,0,0.03,23,�k�k��,2.7,59
2012/8/5,7:00:00,45,�k��,1,15.8,99.5,0,0,0.06,360,�k,2.5,39
2012/8/5,8:00:00,45,�k��,0.9,16.5,99.3,0.5,7,0.1,68,���k��,2.7,37
2012/8/5,9:00:00,338,�k�k��,0.6,17.1,98.1,0,39,0.12,338,�k�k��,3,30
2012/8/5,10:00:00,68,���k��,0.8,17.5,94.9,0,60,0.16,315,�k��,1.9,25
2012/8/5,11:00:00,113,���쓌,2,17.1,96.2,0,58,0.16,113,���쓌,3.2,27
2012/8/5,12:00:00,113,���쓌,1.8,16.8,96.6,0,60,0.17,113,���쓌,2.9,1
2012/8/5,13:00:00,135,�쓌,1.8,17.1,96.5,0,60,0.17,90,��,2.6,7
2012/8/5,14:00:00,113,���쓌,1.7,16.7,97.4,0,60,0.19,113,���쓌,3,20
2012/8/5,15:00:00,135,�쓌,1.5,16.5,97.4,0,19,0.1,113,���쓌,2.8,56
2012/8/5,16:00:00,203,��쐼,1.8,17.1,97.2,0,46,0.17,225,�쐼,3.9,53
2012/8/5,17:00:00,248,���쐼,0.7,17.1,97.6,0,23,0.11,158,��쓌,3,5
2012/8/5,18:00:00,158,��쓌,1,16.5,97.7,0,11,0.06,203,��쐼,2.1,38
2012/8/5,19:00:00,180,��,1,16.3,98.7,0,0,0.01,180,��,2.3,8
2012/8/5,20:00:00,113,���쓌,0.4,16.1,99,0,0,0,180,��,2.1,43
2012/8/5,21:00:00,203,��쐼,0.5,16.2,99.2,0,0,0,158,��쓌,2.5,22
2012/8/5,22:00:00,270,��,1.3,16.2,99.3,0,0,0,180,��,2.6,17
2012/8/5,23:00:00,23,�É�,0.1,16.4,99.2,0,0,0,338,�k�k��,1.6,24
2012/8/5,0:00:00,248,�É�,0.2,16.3,99.3,0,0,0,360,�k,2.1,1
2012/8/6,1:00:00,270,��,0.7,16.4,99.4,0,0,0,293,���k��,1.2,53
2012/8/6,2:00:00,135,�쓌,0.6,16.4,99.4,0.5,0,0,45,�k��,2.1,46
2012/8/6,3:00:00,68,���k��,0.6,16.2,99.5,0,0,0,23,�k�k��,1.6,0
2012/8/6,4:00:00,45,�k��,1,16.2,99.5,0,0,0,45,�k��,2.1,29
2012/8/6,5:00:00,23,�k�k��,0.4,16.1,99.6,1,0,0.01,90,��,2.3,16
2012/8/6,6:00:00,135,�쓌,0.5,16.3,99.6,0.5,0,0.03,113,���쓌,1.8,53
2012/8/6,7:00:00,270,��,0.5,16.9,99.5,0.5,0,0.05,23,�k�k��,2.3,25
2012/8/6,8:00:00,135,�쓌,0.9,17,99.4,3,0,0.03,158,��쓌,2.5,45
2012/8/6,9:00:00,90,��,1.6,17,99.4,1,12,0.08,90,��,2.3,58
2012/8/6,10:00:00,135,�쓌,0.9,18.2,98.5,0,49,0.18,90,��,2.5,4
2012/8/6,11:00:00,113,���쓌,2.3,20.3,92.8,0,60,0.61,113,���쓌,4,46
2012/8/6,12:00:00,113,���쓌,2.7,18.7,90.9,0,60,0.48,113,���쓌,3.8,49
2012/8/6,13:00:00,158,��쓌,2.4,18.7,91.3,0,60,0.51,135,�쓌,4.8,8
2012/8/6,14:00:00,158,��쓌,1.5,18.5,94.1,0,60,0.26,158,��쓌,3.5,3
2012/8/6,15:00:00,135,�쓌,1.1,18.5,94.6,0,60,0.21,113,���쓌,2.8,57
2012/8/6,16:00:00,158,��쓌,0.7,17.9,96.5,0,13,0.1,158,��쓌,2.7,31
2012/8/6,17:00:00,338,�k�k��,0.7,18.3,96,0,27,0.11,180,��,1.8,36
2012/8/6,18:00:00,203,��쐼,0.4,18.4,97.1,0,0,0.05,45,�k��,2.8,18
2012/8/6,19:00:00,135,�쓌,0.5,18.2,97.6,0,0,0.01,113,���쓌,1.1,48
2012/8/6,20:00:00,68,���k��,2.7,17.1,97.9,0,0,0,68,���k��,4.3,53
2012/8/6,21:00:00,68,���k��,2.4,16.6,98.6,0,0,0,68,���k��,4.4,40
2012/8/6,22:00:00,68,���k��,1.9,16.1,96.9,0,0,0,90,��,4,8
2012/8/6,23:00:00,45,�k��,1.8,15.7,97.9,0,0,0,45,�k��,3.3,47
2012/8/6,0:00:00,68,���k��,2.3,15.8,98.9,0,0,0,68,���k��,3.3,38
2012/8/7,1:00:00,90,��,2.2,15.4,99,0,0,0,90,��,3.8,10
2012/8/7,2:00:00,68,���k��,1.1,15.5,98.7,0,0,0,68,���k��,2.7,0
2012/8/7,3:00:00,68,���k��,2,15.1,98.7,0,0,0,90,��,3.1,58
2012/8/7,4:00:00,45,�k��,1.7,14.9,99.1,0,0,0,45,�k��,3.2,13
2012/8/7,5:00:00,68,���k��,2.1,14.5,99.2,0,0,0.01,68,���k��,4.5,26
2012/8/7,6:00:00,360,�k,0.7,14.8,99.3,0,0,0.02,45,�k��,2.5,10
2012/8/7,7:00:00,360,�É�,0,15,98.8,0,0,0.06,68,���k��,0.9,42
2012/8/7,8:00:00,270,�É�,0,15.4,98.1,2,0,0.09,248,���쐼,0.9,44
2012/8/7,9:00:00,68,���k��,1,16.7,95.6,2,53,0.25,113,���쓌,3.1,59
2012/8/7,10:00:00,113,���쓌,2.2,16,97.1,0,60,0.23,90,��,3.7,57
2012/8/7,11:00:00,113,���쓌,2.5,18,92.8,0,60,0.46,113,���쓌,4,56
2012/8/7,12:00:00,90,��,3.7,16.8,92.1,0,60,0.43,90,��,5.4,51
2012/8/7,13:00:00,90,��,3.2,17.2,92,0,60,0.34,113,���쓌,4.7,3
2012/8/7,14:00:00,90,��,1.5,16.6,92.9,0,60,0.25,113,���쓌,4.2,1
2012/8/7,15:00:00,45,�k��,1.4,17.1,88.7,0,60,0.19,68,���k��,2.7,47
2012/8/7,16:00:00,90,��,3.5,16.2,91.4,0,49,0.14,90,��,4.7,59
2012/8/7,17:00:00,68,���k��,0.6,16.7,91,0,56,0.15,90,��,4.6,0
2012/8/7,18:00:00,23,�k�k��,0.6,16.4,92.9,0,0,0.06,23,�k�k��,0.9,55
2012/8/7,19:00:00,270,��,0.3,15.4,97.4,0,0,0.01,360,�k,1.2,29
2012/8/7,20:00:00,135,�쓌,1.9,15,97.3,0,0,0,113,���쓌,3.8,48
2012/8/7,21:00:00,68,���k��,1.3,14.8,97.3,0,0,0,135,�쓌,2.4,0
2012/8/7,22:00:00,315,�k��,2.3,14.9,97.7,0,0,0,315,�k��,4.2,54
2012/8/7,23:00:00,315,�k��,0.8,14.9,97.8,0,0,0,315,�k��,2.9,3
2012/8/7,0:00:00,90,��,0.8,15.2,98.3,0,0,0,90,��,2,37
2012/8/8,1:00:00,90,�É�,0,15.5,98.3,0,0,0,315,�k��,1.5,24
2012/8/8,2:00:00,68,���k��,1.4,15.7,97.1,0,0,0,45,�k��,2.2,15
2012/8/8,3:00:00,23,�k�k��,1.5,15.3,96.9,0,0,0,68,���k��,2.5,15
2012/8/8,4:00:00,315,�k��,0.8,14.4,95.7,0,0,0,315,�k��,1.9,27
2012/8/8,5:00:00,338,�k�k��,0.6,13.7,99.3,0,0,0.01,270,��,1.1,13
2012/8/8,6:00:00,315,�k��,1.2,15,98.6,0,1,0.04,315,�k��,2.5,15
2012/8/8,7:00:00,338,�k�k��,3,18.1,82.9,0,52,0.37,315,�k��,6.4,56
2012/8/8,8:00:00,338,�k�k��,2.5,19.2,80.4,0,60,0.53,360,�k,7.4,25
2012/8/8,9:00:00,338,�k�k��,2.6,20.9,76.8,0,60,0.66,315,�k��,5.8,40
2012/8/8,10:00:00,315,�k��,3.2,21.5,70.7,0,60,0.58,315,�k��,5.7,38
2012/8/8,11:00:00,315,�k��,3.2,22.6,70.7,0,60,0.66,315,�k��,7.1,30
2012/8/8,12:00:00,360,�k,2.8,23.2,69.9,0,60,0.65,315,�k��,6.6,29
2012/8/8,13:00:00,338,�k�k��,1.4,20.9,83.6,0,60,0.28,338,�k�k��,7.1,7
2012/8/8,14:00:00,315,�k��,2.5,19.9,85.5,0,60,0.23,315,�k��,6.1,56
2012/8/8,15:00:00,23,�k�k��,2,19.5,94.2,0.5,60,0.21,315,�k��,5.4,12
2012/8/8,16:00:00,113,���쓌,1.5,17,96.9,0.5,22,0.13,23,�k�k��,4.3,15
2012/8/8,17:00:00,135,�쓌,0.6,16.9,98,0,0,0.06,113,���쓌,2.4,7
2012/8/8,18:00:00,225,�쐼,0.5,16.6,98.8,0,0,0.02,158,��쓌,3,13
2012/8/8,19:00:00,203,��쐼,0.8,16.7,99,1.5,0,0.01,180,��,2,58
2012/8/8,20:00:00,293,���k��,1.5,16.8,99.1,1.5,0,0,203,��쐼,2.7,20
2012/8/8,21:00:00,23,�k�k��,2.5,16.6,98.2,0,0,0,23,�k�k��,4.8,40
2012/8/8,22:00:00,68,���k��,1.4,16,98.5,0.5,0,0,90,��,3.5,36
2012/8/8,23:00:00,338,�k�k��,0.9,16.1,99,0.5,0,0,315,�k��,3,40
2012/8/8,0:00:00,68,���k��,2.2,15.6,98.9,0,0,0,90,��,3.6,50
2012/8/9,1:00:00,158,��쓌,0.8,15.7,99.4,0,0,0,158,��쓌,2.5,11
2012/8/9,2:00:00,113,���쓌,1,15.6,99.6,0,0,0,90,��,2.6,12
2012/8/9,3:00:00,90,��,2.4,15.4,99.7,0,0,0,90,��,3.5,58
2012/8/9,4:00:00,135,�쓌,1.4,15.2,99.7,0,0,0,90,��,3.6,3
2012/8/9,5:00:00,68,���k��,2.6,14.7,99.8,0.5,0,0.01,68,���k��,4.2,49
2012/8/9,6:00:00,68,���k��,2.5,15.1,99.9,0,0,0.04,68,���k��,3.6,57
2012/8/9,7:00:00,68,���k��,3.7,15.1,99.8,0,39,0.13,45,�k��,5.2,52
2012/8/9,8:00:00,23,�k�k��,2.1,16.1,99.3,0,60,0.29,45,�k��,5.1,25
2012/8/9,9:00:00,90,��,2.5,16,96.9,0,60,0.27,90,��,4.1,59
2012/8/9,10:00:00,68,���k��,2.5,16,96,0,60,0.31,90,��,4.7,1
2012/8/9,11:00:00,90,��,2.7,18.3,91.5,0,60,0.56,68,���k��,4.7,31
2012/8/9,12:00:00,90,��,3.6,18.3,90,0,60,0.63,90,��,6.8,5
2012/8/9,13:00:00,90,��,2.9,18.5,86.4,0,60,0.55,113,���쓌,5.5,40
2012/8/9,14:00:00,68,���k��,2.1,18.4,87.8,0,60,0.32,68,���k��,4.1,4
2012/8/9,15:00:00,135,�쓌,1.5,19.9,86,0,60,0.26,113,���쓌,2.9,59
2012/8/9,16:00:00,23,�k�k��,1.2,19.9,89.9,0,60,0.31,90,��,4.6,24
2012/8/9,17:00:00,315,�k��,0.8,19.3,96.1,0,21,0.11,68,���k��,1.6,3
2012/8/9,18:00:00,45,�k��,1.4,19.2,98.1,0,0,0.04,23,�k�k��,2.3,58
2012/8/9,19:00:00,315,�k��,1.1,19,98.6,0,0,0.01,23,�k�k��,2,8
2012/8/9,20:00:00,23,�k�k��,2.1,18.1,98.9,0.5,0,0,68,���k��,3.9,13
2012/8/9,21:00:00,45,�k��,2.1,18,99,0,0,0,23,�k�k��,4.1,39
2012/8/9,22:00:00,360,�k,0.9,18,99,0,0,0,45,�k��,4,7
2012/8/9,23:00:00,360,�É�,0,18.3,99.2,0,0,0,360,�k,2,0
2012/8/9,0:00:00,45,�k��,1.9,18.3,99.2,9,0,0,68,���k��,4.4,36
2012/8/10,1:00:00,68,���k��,2.7,18.3,99.1,0,0,0,68,���k��,4.8,50
2012/8/10,2:00:00,23,�k�k��,1.6,18.2,99,1,0,0,45,�k��,4.3,42
2012/8/10,3:00:00,45,�k��,0.9,18.1,99.1,2,0,0,45,�k��,1.9,0
2012/8/10,4:00:00,45,�k��,1.4,18.3,99.2,1,0,0,23,�k�k��,2.4,59
2012/8/10,5:00:00,338,�k�k��,0.4,18.4,99.3,0.5,0,0.01,23,�k�k��,2.5,1
2012/8/10,6:00:00,293,���k��,1,18.7,99.3,1,0,0.04,270,��,1.6,56
2012/8/10,7:00:00,315,�k��,0.5,19.4,99.3,1,0,0.06,338,�k�k��,1.6,7
2012/8/10,8:00:00,293,���k��,1.8,19.4,99.1,1.5,0,0.06,315,�k��,2.7,59
2012/8/10,9:00:00,338,�k�k��,0.8,19.7,98.9,1,0,0.05,315,�k��,3.1,37
2012/8/10,10:00:00,315,�k��,4.7,20.1,98.6,6,0,0.03,315,�k��,8.6,56
2012/8/10,11:00:00,135,�쓌,2.3,19,96.5,1.5,31,0.15,315,�k��,8.5,6
2012/8/10,12:00:00,135,�쓌,1.3,18.4,98.7,1,20,0.11,135,�쓌,4.3,3
2012/8/10,13:00:00,293,���k��,1.5,19.2,98.8,1,16,0.11,315,�k��,2.5,59
2012/8/10,14:00:00,248,���쐼,1.8,20.3,98.2,1,49,0.15,248,���쐼,2.8,59
2012/8/10,15:00:00,203,��쐼,1.3,21.4,98.5,3,6,0.09,248,���쐼,2.8,2
2012/8/10,16:00:00,270,��,0.3,21.9,98.5,2,9,0.09,180,��,1.6,7
2012/8/10,17:00:00,90,��,0.3,20.2,98.7,1.5,0,0.02,135,�쓌,2.2,6
2012/8/10,18:00:00,225,�쐼,2,19.9,98.9,3.5,0,0.01,180,��,5.1,3
2012/8/10,19:00:00,180,��,1.9,19,98.5,1.5,0,0,203,��쐼,3.3,9
2012/8/10,20:00:00,203,��쐼,0.5,19.4,98.8,1.5,0,0,203,��쐼,3.6,9
2012/8/10,21:00:00,113,���쓌,0.6,17.1,99.1,0,0,0,135,�쓌,2.8,21
2012/8/10,22:00:00,270,��,0.7,17.4,99.5,0,0,0,158,��쓌,2.2,24
2012/8/10,23:00:00,180,��,0.3,17.7,99.5,0.5,0,0,225,�쐼,1.2,0
2012/8/10,0:00:00,360,�É�,0.1,18.2,99.4,2.5,0,0,203,��쐼,3.6,9
2012/8/11,1:00:00,270,��,0.6,18.3,99.4,0,0,0,158,��쓌,2.6,21
2012/8/11,2:00:00,315,�k��,0.3,18.2,99.5,0,0,0,315,�k��,1.5,50
2012/8/11,3:00:00,135,�쓌,0.7,18,99.6,0,0,0,68,���k��,1.3,39
2012/8/11,4:00:00,68,���k��,1.3,16.7,99.7,0,0,0,158,��쓌,2.5,13
2012/8/11,5:00:00,45,�k��,1.3,16.7,99.8,0,0,0.01,45,�k��,2.6,44
2012/8/11,6:00:00,203,��쐼,0.5,17.8,99.8,0,0,0.06,68,���k��,2.2,1
2012/8/11,7:00:00,45,�k��,0.5,19.2,99.7,0,39,0.12,90,��,1.3,31
2012/8/11,8:00:00,90,��,1,19.5,99.7,0,60,0.23,113,���쓌,2.6,33
2012/8/11,9:00:00,68,���k��,1.7,20.3,98.9,0,60,0.41,113,���쓌,2.9,2
2012/8/11,10:00:00,90,��,3,22.4,92.7,0,60,0.73,90,��,4.5,31
2012/8/11,11:00:00,90,��,2.9,19.8,91.6,0,60,0.5,90,��,4,56
2012/8/11,12:00:00,113,���쓌,2.5,19.8,88.8,0,60,0.39,90,��,4,4
2012/8/11,13:00:00,68,���k��,2.1,19.9,90.5,0,60,0.38,90,��,4.4,17
2012/8/11,14:00:00,68,���k��,2,21.9,90.3,0,60,0.43,45,�k��,3.1,10
2012/8/11,15:00:00,90,��,3,20.7,90.6,0,60,0.42,90,��,4.7,52
2012/8/11,16:00:00,90,��,3.1,20,91.1,0,60,0.24,90,��,5,54
2012/8/11,17:00:00,90,��,3.5,17.7,94.4,0,60,0.24,90,��,4.9,58
2012/8/11,18:00:00,45,�k��,1.7,17.9,97.1,0,8,0.09,68,���k��,5.6,16
2012/8/11,19:00:00,68,���k��,1.2,16.6,97.8,0,0,0.02,68,���k��,2.9,3
2012/8/11,20:00:00,68,���k��,1.3,17,99.2,0,0,0,90,��,3.4,21
2012/8/11,21:00:00,23,�k�k��,1.7,17,99.5,0,0,0,68,���k��,3.6,8
2012/8/11,22:00:00,23,�k�k��,1.7,16.7,99.6,0,0,0,23,�k�k��,2.5,56
2012/8/11,23:00:00,68,���k��,0.7,16.7,99.7,0,0,0,45,�k��,2.3,5
2012/8/11,0:00:00,113,���쓌,1.2,16.2,99.8,0,0,0,23,�k�k��,2.5,24
2012/8/12,1:00:00,113,���쓌,0.9,15.9,99.9,0,0,0,135,�쓌,2.1,4
2012/8/12,2:00:00,90,��,1.3,16,100,0,0,0,90,��,2.1,53
2012/8/12,3:00:00,23,�k�k��,0.4,16.2,100,0,0,0,225,�쐼,1.5,20
2012/8/12,4:00:00,315,�k��,0.7,15.8,100,0,0,0,23,�k�k��,2.1,33
2012/8/12,5:00:00,158,�É�,0,16,100,0,0,0.01,315,�k��,1,7
2012/8/12,6:00:00,68,���k��,2.2,16.1,100,0,0,0.04,68,���k��,2.9,57
2012/8/12,7:00:00,23,�k�k��,0.4,16.6,100,0,1,0.09,23,�k�k��,2.3,15
2012/8/12,8:00:00,225,�É�,0.1,17.7,99.8,0,37,0.19,45,�k��,1,38
2012/8/12,9:00:00,270,��,0.9,19,96.2,0,60,0.48,248,���쐼,2.6,54
2012/8/12,10:00:00,113,���쓌,3.5,21.4,86.6,0,60,0.86,113,���쓌,5.1,53
2012/8/12,11:00:00,113,���쓌,3.7,20.4,88,0,60,0.83,135,�쓌,5.6,54
2012/8/12,12:00:00,90,��,2.9,21.4,85.4,0,60,0.92,90,��,5.7,1
2012/8/12,13:00:00,90,��,2.9,18.6,92.6,0,60,0.44,90,��,5,39
2012/8/12,14:00:00,90,��,2,18.1,95.8,0,60,0.19,113,���쓌,4,31
2012/8/12,15:00:00,90,��,1.3,17.8,98.3,0,60,0.19,68,���k��,3,2
2012/8/12,16:00:00,68,���k��,1.2,18.2,98.9,0,58,0.13,90,��,2.9,13
2012/8/12,17:00:00,135,�쓌,0.9,18.3,99,0,31,0.11,45,�k��,2.8,11
2012/8/12,18:00:00,90,��,2.4,17.6,99.2,0,0,0.06,90,��,3.4,55
2012/8/12,19:00:00,68,���k��,1.5,16.9,99.5,0,0,0.01,68,���k��,3.1,6
2012/8/12,20:00:00,90,��,0.4,17.6,99.7,0,0,0,45,�k��,2,0
2012/8/12,21:00:00,158,��쓌,0.6,17.3,99.7,0,0,0,158,��쓌,1.1,52
2012/8/12,22:00:00,68,���k��,0.6,17.7,99.8,0,0,0,315,�k��,1.5,28
2012/8/12,23:00:00,135,�É�,0.2,17.4,99.8,0,0,0,90,��,1.8,29
2012/8/12,0:00:00,23,�k�k��,0.9,17.5,99.9,0,0,0,23,�k�k��,1.8,48
2012/8/13,1:00:00,315,�É�,0.2,17.1,99.9,0,0,0,23,�k�k��,2.1,10
2012/8/13,2:00:00,338,�k�k��,0.4,17.3,99.9,0,0,0,360,�k,2.5,16
2012/8/13,3:00:00,293,���k��,0.6,17.5,99.9,0,0,0,360,�k,1.5,21
2012/8/13,4:00:00,315,�É�,0.2,17.7,99.9,0,0,0,248,���쐼,0.9,0
2012/8/13,5:00:00,270,��,0.7,17.9,99.9,0,0,0,270,��,1.2,58
2012/8/13,6:00:00,270,��,0.5,18.3,99.9,0,0,0.02,293,���k��,1.6,3
2012/8/13,7:00:00,68,���k��,1.1,18.4,99.8,0,0,0.04,90,��,1.8,59
2012/8/13,8:00:00,135,�쓌,0.4,18.3,99.9,0.5,0,0.05,113,���쓌,1.8,2
2012/8/13,9:00:00,135,�쓌,0.4,18.7,99.8,0,37,0.12,90,��,1.4,36
2012/8/13,10:00:00,113,���쓌,1.3,18.6,99.9,0,50,0.16,90,��,2.7,31
2012/8/13,11:00:00,68,���k��,1.9,19,99.8,0,17,0.12,68,���k��,2.8,56
2012/8/13,12:00:00,90,��,1.3,19.4,99.8,0.5,32,0.12,68,���k��,2.8,13
2012/8/13,13:00:00,90,��,1.8,18.4,99.9,0,25,0.11,90,��,3.1,55
2012/8/13,14:00:00,45,�k��,1.8,18,99.9,0.5,28,0.12,90,��,3.5,20
2012/8/13,15:00:00,68,���k��,1.8,18.2,99.9,0.5,0,0.1,90,��,2.5,31
2012/8/13,16:00:00,68,���k��,2,18.2,99.9,1,0,0.06,90,��,3.3,37
2012/8/13,17:00:00,68,���k��,1.4,18.3,99.9,8,0,0.03,68,���k��,3.5,27
2012/8/13,18:00:00,180,��,2.7,20.1,99.8,6,0,0.02,203,��쐼,5.1,51
2012/8/13,19:00:00,248,���쐼,2,20.1,99.8,0.5,0,0,203,��쐼,8.4,35
2012/8/13,20:00:00,293,���k��,2.5,20.2,99.8,0,0,0,293,���k��,4.6,50
2012/8/13,21:00:00,270,��,2.4,20,99.7,0,0,0,293,���k��,4.1,0
2012/8/13,22:00:00,270,��,2.4,19.9,99.6,0,0,0,270,��,4.4,39
2012/8/13,23:00:00,135,�쓌,0.8,19.5,99.7,0,0,0,293,���k��,3.3,18
2012/8/13,0:00:00,180,��,0.6,19.3,99.7,0,0,0,270,��,2.5,33
2012/8/14,1:00:00,225,�쐼,2.4,21.3,99.6,0,0,0,225,�쐼,3.9,56
2012/8/14,2:00:00,45,�k��,1.5,19.8,99,0,0,0,225,�쐼,3.4,1
2012/8/14,3:00:00,338,�k�k��,0.8,19.6,98.9,0,0,0,45,�k��,3,0
2012/8/14,4:00:00,360,�k,1.1,19.4,99.2,0,0,0,315,�k��,2.2,32
2012/8/14,5:00:00,315,�k��,1.7,19.8,98.9,0,0,0.01,315,�k��,2.7,59
2012/8/14,6:00:00,158,��쓌,0.3,20.7,98.2,0,15,0.08,293,���k��,2.8,0
2012/8/14,7:00:00,45,�k��,1.4,22.9,85.3,0,60,0.21,360,�k,2.9,26
2012/8/14,8:00:00,90,��,1.8,21.8,92.3,0,60,0.32,90,��,3.5,39
2012/8/14,9:00:00,135,�쓌,1.7,24.1,80.4,0,60,0.55,113,���쓌,3.4,50
2012/8/14,10:00:00,113,���쓌,2.7,23.8,83.6,0,60,0.74,135,�쓌,4.3,48
2012/8/14,11:00:00,158,��쓌,2,22.6,85,0,60,0.63,158,��쓌,4.1,30
2012/8/14,12:00:00,180,��,2,21.8,89.7,0,60,0.36,180,��,3.9,35
2012/8/14,13:00:00,180,��,2.9,24.2,80.5,0,60,0.63,180,��,5.2,54
2012/8/14,14:00:00,203,��쐼,3.5,24.2,76.1,0,60,0.84,158,��쓌,6.3,59
2012/8/14,15:00:00,203,��쐼,3.5,23.7,78.7,0,60,0.7,180,��,7,7
2012/8/14,16:00:00,180,��,3.3,22.6,79.7,0,60,0.53,180,��,6.4,17
2012/8/14,17:00:00,180,��,2,22,82.3,0,60,0.33,180,��,4.4,6
2012/8/14,18:00:00,203,��쐼,1,19.9,89.7,0,34,0.13,203,��쐼,3.4,11
2012/8/14,19:00:00,338,�k�k��,0.8,17,96,0,0,0.01,158,��쓌,2.2,6
2012/8/14,20:00:00,293,�É�,0.2,16.4,98.6,0,0,0,68,���k��,2.5,15
2012/8/14,21:00:00,293,���k��,0.9,15.5,99.3,0,0,0,293,���k��,1.5,27
2012/8/14,22:00:00,338,�k�k��,0.7,16.1,99.5,0,0,0,315,�k��,2.9,39
2012/8/14,23:00:00,270,��,1.7,15.2,99.7,0,0,0,270,��,2.3,53
2012/8/14,0:00:00,270,��,0.6,14.9,99.9,0,0,0,293,���k��,2.1,44
2012/8/15,1:00:00,315,�k��,2,13.9,99.9,0,0,0,293,���k��,2.6,51
2012/8/15,2:00:00,270,��,0.8,15,100,0,0,0,180,��,1.7,45
2012/8/15,3:00:00,315,�k��,1.5,15.2,100,0,0,0,315,�k��,2.7,57
2012/8/15,4:00:00,338,�k�k��,0.4,13.7,100,0,0,0,293,���k��,2.4,13
2012/8/15,5:00:00,293,���k��,0.5,14.4,100,0,0,0.01,315,�k��,2.2,27
2012/8/15,6:00:00,315,�É�,0.1,15.3,100,0,0,0.05,293,���k��,1.5,1
2012/8/15,7:00:00,45,�k��,1.5,16.8,100,0,29,0.12,360,�k,2.6,42
2012/8/15,8:00:00,360,�k,1.6,17.1,100,0,60,0.17,23,�k�k��,2.9,58
2012/8/15,9:00:00,68,���k��,2.3,17.6,100,0,60,0.23,68,���k��,4.3,39
2012/8/15,10:00:00,90,��,2.5,18.5,97.8,0,60,0.36,68,���k��,4,6
2012/8/15,11:00:00,90,��,4.2,19.2,94.7,0,60,0.55,90,��,5.4,53
2012/8/15,12:00:00,90,��,3.2,18,96.4,0,60,0.42,90,��,6.2,27
2012/8/15,13:00:00,90,��,1.9,20.1,92.2,0,60,0.47,113,���쓌,3.6,23
2012/8/15,14:00:00,90,��,2.7,18.8,94.7,0,60,0.47,90,��,5.1,10
2012/8/15,15:00:00,90,��,3.5,19.3,91.1,0,60,0.55,90,��,5.2,59
2012/8/15,16:00:00,68,���k��,3.5,17.6,95.6,0,60,0.46,68,���k��,5.5,49
2012/8/15,17:00:00,68,���k��,3.1,16.2,98,0,39,0.17,68,���k��,4.5,4
2012/8/15,18:00:00,90,��,2.3,15.9,99.4,0,0,0.05,68,���k��,4.8,5
2012/8/15,19:00:00,68,���k��,0.5,15.8,99.7,0,0,0,90,��,4.5,7
2012/8/15,20:00:00,68,���k��,0.5,16.3,99.9,0,0,0,113,���쓌,2.2,5
2012/8/15,21:00:00,90,��,0.5,17.2,99.9,0,0,0,113,���쓌,2.5,25
2012/8/15,22:00:00,180,��,2.3,18.4,99.7,0,0,0,158,��쓌,6.6,36
2012/8/15,23:00:00,158,��쓌,2.7,18.3,98.1,0,0,0,158,��쓌,5.3,50
2012/8/15,0:00:00,158,��쓌,1.6,18.4,96.9,0,0,0,180,��,6.1,35
2012/8/16,1:00:00,180,��,4.1,18.7,96.2,0,0,0,180,��,7.4,56
2012/8/16,2:00:00,180,��,4.1,20,96.8,0,0,0,158,��쓌,8.2,49
2012/8/16,3:00:00,180,��,3.6,18.4,96.1,0,0,0,158,��쓌,8.8,5
2012/8/16,4:00:00,203,��쐼,4.5,19.6,95.4,0,0,0,180,��,9.2,48
2012/8/16,5:00:00,203,��쐼,2.6,19.3,97.9,0,0,0,180,��,9.3,15
2012/8/16,6:00:00,158,��쓌,1.1,18.8,98.4,0,1,0.03,225,�쐼,5,4
2012/8/16,7:00:00,158,��쓌,2.3,20.3,96.5,0,60,0.18,158,��쓌,4.9,56
2012/8/16,8:00:00,180,��,2.4,20.6,91.5,0,60,0.35,158,��쓌,6.8,42
2012/8/16,9:00:00,203,��쐼,3.4,22,92.8,0,3,0.07,203,��쐼,7.7,39
2012/8/16,10:00:00,180,��,2.8,22.5,90.4,0,25,0.11,203,��쐼,7.2,19
2012/8/16,11:00:00,203,��쐼,4.4,23.4,87.6,0,54,0.16,180,��,8.8,55
2012/8/16,12:00:00,315,�k��,1.9,22.6,91.7,0,25,0.11,180,��,7.3,2
2012/8/16,13:00:00,180,��,2.2,24.1,85.5,0,60,0.14,158,��쓌,3.8,49